Location: Home
(42.5358°N, 72.7383°W)
Time: 04:29:30
(UTC-04:00)

Vanguard 1 - Pass Details

Date: 02 June 2022
Orbit: 649 x 3832 km, 34.2° (Epoch: 24 June)

Event Time Altitude Azimuth Distance (km) Brightness Sun altitude
Exits shadow 23:01:44 29° 164° (SSE) 2,667 11.7 -20.6°
Maximum altitude 23:04:00 32° 142° (SE) 2,784 11.8 -20.8°
Drops below altitude 10° 23:15:59 10° 87° (E) 5,453 13.6 -21.7°
Sets 23:21:53 0° 80° (E) 6,990 14.3 -22.1°
